Baku, Azerbaijan

2:51 PM +04 on June 22, 2018 (GMT +0400)
Bina

Weather History for UBBB - March, 2018

Change the Weather History Date:

Tuesday, March 13, 2018

  Actual Average (WUND) Record (WUND)
Temperature  
Mean Temperature 40 °F -  
Max Temperature 47 °F - - (-1)
Min Temperature 34 °F - - (-1)
Degree Days  
Heating Degree Days 24    
Moisture  
Dew Point 31 °F    
Average Humidity 79    
Maximum Humidity 93    
Minimum Humidity 49    
Precipitation  
Precipitation 0.00 in - - ()
Sea Level Pressure  
Sea Level Pressure 30.28 in    
Wind  
Wind Speed 9 mph ()    
Max Wind Speed 16 mph    
Max Gust Speed -    
Visibility 6.2 miles    
Events Rain , Snow    
Averages and records for this station are not official NWS values.
T = Trace of Precipitation, MM = Missing Value Source: Averaged Metar Reports

Daily Weather History Graph

Daily Weather History Graph

Search for Another Location

Airport or City:

Astronomy

Mar. 13, 2018 Rise Set
Actual Time 6:55 AM +04 6:44 PM +04
Civil Twilight 6:27 AM +04 7:11 PM +04
Nautical Twilight 5:56 AM +04 7:42 PM +04
Astronomical Twilight 5:24 AM +04 8:14 PM +04
Moon 4:36 AM +04 (3/13) 2:43 PM +04 (3/13)
Length of Visible Light 12h 43m
Length of Day
11h 48m
Waning Crescent, 17% of the Moon is Illuminated
Mar 13
Waning Crescent
Mar 17
New
Mar 24
First Quarter
Mar 31
Full
Apr 8
Last Quarter

Hourly Weather History & Observations

Time (+04) Temp. Windchill Dew Point Humidity Pressure Visibility Wind Dir Wind Speed Gust Speed Precip Events Conditions
12:00 AM 35.6 °F 26.6 °F 30.2 °F 81% 30.30 in 6.2 mi NNW 13.8 mph - N/A   Overcast
1:00 AM 36 °F - 30 °F 72% 30.30 in 6 mi WNW 15.7 mph - -   Overcast
1:00 AM 35.6 °F 26.6 °F 30.2 °F 81% 30.30 in 6.2 mi NNW 13.8 mph - N/A   Overcast
1:30 AM 35.6 °F 26.2 °F 32.0 °F 87% 30.30 in 6.2 mi North 15.0 mph - N/A Snow Light Snow
2:00 AM 35.6 °F 27.1 °F 32.0 °F 87% 30.30 in 6.2 mi North 12.7 mph - N/A Snow Light Snow
2:30 AM 35.6 °F 27.1 °F 32.0 °F 87% 30.30 in 6.2 mi North 12.7 mph - N/A Snow Light Snow
3:00 AM 35.6 °F 29.9 °F 32.0 °F 87% 30.27 in 6.2 mi North 6.9 mph - N/A   Overcast
3:30 AM 35.6 °F 28.0 °F 32.0 °F 87% 30.27 in 6.2 mi North 10.4 mph - N/A   Overcast
4:00 AM 35 °F - 23 °F 49% 30.28 in 6 mi North 6.7 mph - -   Overcast
4:00 AM 35.6 °F 29.9 °F 32.0 °F 87% 30.27 in 6.2 mi North 6.9 mph - N/A   Overcast
4:30 AM 35.6 °F 29.2 °F 32.0 °F 87% 30.27 in 6.2 mi North 8.1 mph - N/A   Overcast
5:00 AM 35.6 °F 29.2 °F 32.0 °F 87% 30.27 in 6.2 mi North 8.1 mph - N/A   Overcast
5:30 AM 35.6 °F 28.0 °F 32.0 °F 87% 30.27 in 6.2 mi North 10.4 mph - N/A   Overcast
6:00 AM 35.6 °F 29.2 °F 32.0 °F 87% 30.27 in 6.2 mi North 8.1 mph - N/A   Overcast
6:30 AM 35.6 °F 29.9 °F 30.2 °F 81% 30.30 in 6.2 mi North 6.9 mph - N/A   Overcast
7:00 AM 35 °F - 29 °F 71% 30.29 in 6 mi North 4.5 mph - -   Overcast
7:00 AM 35.6 °F 31.7 °F 30.2 °F 81% 30.30 in 6.2 mi North 4.6 mph - N/A   Overcast
7:30 AM 35.6 °F 31.7 °F 30.2 °F 81% 30.30 in 6.2 mi North 4.6 mph - N/A   Overcast
8:00 AM 35.6 °F 31.7 °F 30.2 °F 81% 30.30 in 6.2 mi North 4.6 mph - N/A   Overcast
8:30 AM 37.4 °F 32.8 °F 30.2 °F 75% 30.30 in 6.2 mi NNE 5.8 mph - N/A   Overcast
9:00 AM 37.4 °F 32.1 °F 28.4 °F 70% 30.30 in 6.2 mi NE 6.9 mph - N/A   Overcast
9:30 AM 37.4 °F 30.8 °F 28.4 °F 70% 30.30 in 6.2 mi NNE 9.2 mph - N/A   Overcast
10:00 AM 37 °F - 29 °F 62% 30.31 in 6 mi NNE 6.7 mph - -   Overcast
10:00 AM 37.4 °F 32.1 °F 28.4 °F 70% 30.30 in 6.2 mi NE 6.9 mph - N/A   Overcast
10:30 AM 37.4 °F 30.8 °F 28.4 °F 70% 30.30 in 6.2 mi NNE 9.2 mph - N/A   Overcast
11:00 AM 37.4 °F 31.4 °F 30.2 °F 75% 30.30 in 6.2 mi ENE 8.1 mph - N/A Snow Light Snow
11:30 AM 37.4 °F 32.8 °F 28.4 °F 70% 30.30 in 6.2 mi NE 5.8 mph - N/A   Overcast
12:00 PM 37.4 °F 32.8 °F 28.4 °F 70% 30.30 in 6.2 mi NE 5.8 mph - N/A   Overcast
12:30 PM 39.2 °F 34.2 °F 30.2 °F 70% 30.27 in 6.2 mi NE 6.9 mph - N/A   Overcast
1:00 PM 39 °F - 30 °F 59% 30.28 in 6 mi NE 4.5 mph - -   Overcast
1:00 PM 39.2 °F 34.2 °F 28.4 °F 65% 30.27 in 6.2 mi East 6.9 mph - N/A   Overcast
1:30 PM 39.2 °F 35.0 °F 30.2 °F 70% 30.27 in 6.2 mi East 5.8 mph - N/A   Overcast
2:00 PM 39.2 °F 34.2 °F 30.2 °F 70% 30.24 in 6.2 mi ENE 6.9 mph - N/A   Overcast
2:30 PM 37.4 °F 31.4 °F 30.2 °F 75% 30.24 in 6.2 mi NE 8.1 mph - N/A   Overcast
3:00 PM 37.4 °F 30.8 °F 30.2 °F 75% 30.24 in 6.2 mi NE 9.2 mph - N/A   Overcast
3:30 PM 37.4 °F 30.3 °F 30.2 °F 75% 30.24 in 6.2 mi NE 10.4 mph - N/A   Overcast
4:00 PM 37 °F - 31 °F 69% 30.25 in 6 mi North 4.5 mph - -   Overcast
4:00 PM 37.4 °F 30.8 °F 30.2 °F 75% 30.24 in 6.2 mi NE 9.2 mph - N/A   Overcast
4:30 PM 37.4 °F 31.4 °F 32.0 °F 81% 30.24 in 6.2 mi NE 8.1 mph - N/A   Overcast
5:00 PM 37.4 °F 30.8 °F 32.0 °F 81% 30.24 in 6.2 mi NE 9.2 mph - N/A   Overcast
5:30 PM 37.4 °F 31.4 °F 32.0 °F 81% 30.24 in 6.2 mi ENE 8.1 mph - N/A   Overcast
6:00 PM 37.4 °F 30.8 °F 32.0 °F 81% 30.24 in 6.2 mi NE 9.2 mph - N/A   Overcast
6:30 PM 37.4 °F 30.8 °F 32.0 °F 81% 30.27 in 6.2 mi NE 9.2 mph - N/A   Light Drizzle
7:00 PM 37 °F - 32 °F 77% 30.27 in 6 mi NNE 4.5 mph - -   Overcast
7:00 PM 37.4 °F 30.8 °F 33.8 °F 87% 30.27 in 6.2 mi NE 9.2 mph - N/A   Light Drizzle
7:30 PM 37.4 °F 30.3 °F 33.8 °F 87% 30.27 in 6.2 mi NE 10.4 mph - N/A   Overcast
8:00 PM 35.6 °F 28.0 °F 33.8 °F 93% 30.27 in 6.2 mi NE 10.4 mph - N/A   Light Drizzle
8:30 PM 35.6 °F 27.5 °F 33.8 °F 93% 30.27 in 6.2 mi NE 11.5 mph - N/A   Light Drizzle
9:00 PM 35.6 °F 28.0 °F 33.8 °F 93% 30.27 in 6.2 mi NE 10.4 mph - N/A   Light Drizzle
9:30 PM 35.6 °F 28.0 °F 33.8 °F 93% 30.27 in 6.2 mi NE 10.4 mph - N/A Rain Light Rain
10:00 PM 35 °F - 32 °F 86% 30.29 in 6 mi North 4.5 mph - -   Overcast
10:00 PM 35.6 °F 27.5 °F 33.8 °F 93% 30.27 in 6.2 mi NE 11.5 mph - N/A Rain Light Rain
10:30 PM 35.6 °F 27.5 °F 33.8 °F 93% 30.27 in 6.2 mi NE 11.5 mph - N/A Rain Light Rain
11:00 PM 35.6 °F 29.9 °F 32.0 °F 87% 30.27 in 6.2 mi ENE 6.9 mph - N/A   Overcast
11:30 PM 35.6 °F 29.9 °F 32.0 °F 87% 30.27 in 6.2 mi ENE 6.9 mph - N/A   Overcast